Year,Month,Day,Hour,Minute,Value (Times are PST for temperature in C)
2010,08,13,00,00,14.70
2010,08,13,00,01,14.70
2010,08,13,00,02,14.70
2010,08,13,00,03,14.70
2010,08,13,00,04,14.70
2010,08,13,00,05,14.70
2010,08,13,00,06,14.70
2010,08,13,00,07,14.70
2010,08,13,00,08,14.70
2010,08,13,00,09,14.70
2010,08,13,00,10,14.70
2010,08,13,00,11,14.70
2010,08,13,00,12,14.70
2010,08,13,00,13,14.70
2010,08,13,00,14,14.70
2010,08,13,00,15,14.70
2010,08,13,00,16,14.70
2010,08,13,00,17,14.70
2010,08,13,00,18,14.70
2010,08,13,00,19,14.70
2010,08,13,00,20,14.70
2010,08,13,00,21,14.70
2010,08,13,00,22,14.70
2010,08,13,00,23,14.70
2010,08,13,00,24,14.70
2010,08,13,00,25,14.70
2010,08,13,00,26,14.70
2010,08,13,00,27,14.70
2010,08,13,00,28,14.70
2010,08,13,00,29,14.70
2010,08,13,00,30,14.70
2010,08,13,00,31,14.70
2010,08,13,00,32,14.70
2010,08,13,00,33,14.60
2010,08,13,00,34,14.60
2010,08,13,00,35,14.60
2010,08,13,00,36,14.60
2010,08,13,00,37,14.60
2010,08,13,00,38,14.60
2010,08,13,00,39,14.60
2010,08,13,00,40,14.50
2010,08,13,00,41,14.50
2010,08,13,00,42,14.50
2010,08,13,00,43,14.50
2010,08,13,00,44,14.40
2010,08,13,00,45,14.40
2010,08,13,00,46,14.40
2010,08,13,00,47,14.40
2010,08,13,00,48,14.40
2010,08,13,00,49,14.40
2010,08,13,00,50,14.40
2010,08,13,00,51,14.40
2010,08,13,00,52,14.40
2010,08,13,00,53,14.30
2010,08,13,00,54,14.30
2010,08,13,00,55,14.30
2010,08,13,00,56,14.30
2010,08,13,00,57,14.30
2010,08,13,00,58,14.30
2010,08,13,00,59,14.30
2010,08,13,01,00,14.30
2010,08,13,01,01,14.30
2010,08,13,01,02,14.30
2010,08,13,01,03,14.30
2010,08,13,01,04,14.30
2010,08,13,01,05,14.30
2010,08,13,01,06,14.30
2010,08,13,01,07,14.30
2010,08,13,01,08,14.30
2010,08,13,01,09,14.30
2010,08,13,01,10,14.30
2010,08,13,01,11,14.30
2010,08,13,01,12,14.30
2010,08,13,01,13,14.30
2010,08,13,01,14,14.30
2010,08,13,01,15,14.30
2010,08,13,01,16,14.30
2010,08,13,01,17,14.30
2010,08,13,01,18,14.30
2010,08,13,01,19,14.20
2010,08,13,01,20,14.20
2010,08,13,01,21,14.20
2010,08,13,01,22,14.20
2010,08,13,01,23,14.20
2010,08,13,01,24,14.20
2010,08,13,01,25,14.20
2010,08,13,01,26,14.20
2010,08,13,01,27,14.20
2010,08,13,01,28,14.10
2010,08,13,01,29,14.10
2010,08,13,01,30,14.10
2010,08,13,01,31,14.10
2010,08,13,01,32,14.10
2010,08,13,01,33,14.10
2010,08,13,01,34,14.10
2010,08,13,01,35,14.10
2010,08,13,01,36,14.10
2010,08,13,01,37,14.10
2010,08,13,01,38,14.10
2010,08,13,01,39,14.00
2010,08,13,01,40,14.00
2010,08,13,01,41,14.00
2010,08,13,01,42,14.00
2010,08,13,01,43,13.90
2010,08,13,01,44,13.90
2010,08,13,01,45,13.90
2010,08,13,01,46,13.90
2010,08,13,01,47,13.90
2010,08,13,01,48,13.90
2010,08,13,01,49,14.00
2010,08,13,01,50,14.00
2010,08,13,01,51,14.00
2010,08,13,01,52,14.00
2010,08,13,01,53,14.00
2010,08,13,01,54,14.00
2010,08,13,01,55,14.00
2010,08,13,01,56,14.00
2010,08,13,01,57,14.00
2010,08,13,01,58,14.00
2010,08,13,01,59,14.00
2010,08,13,02,00,14.00
2010,08,13,02,01,13.90
2010,08,13,02,02,13.90
2010,08,13,02,03,13.90
2010,08,13,02,04,13.90
2010,08,13,02,05,13.90
2010,08,13,02,06,13.90
2010,08,13,02,07,13.90
2010,08,13,02,08,13.90
2010,08,13,02,09,13.90
2010,08,13,02,10,13.80
2010,08,13,02,11,13.80
2010,08,13,02,12,13.80
2010,08,13,02,13,13.80
2010,08,13,02,14,13.80
2010,08,13,02,15,13.80
2010,08,13,02,16,13.70
2010,08,13,02,17,13.70
2010,08,13,02,18,13.70
2010,08,13,02,19,13.70
2010,08,13,02,20,13.70
2010,08,13,02,21,13.70
2010,08,13,02,22,13.60
2010,08,13,02,23,13.60
2010,08,13,02,24,13.60
2010,08,13,02,25,13.60
2010,08,13,02,26,13.60
2010,08,13,02,27,13.50
2010,08,13,02,28,13.50
2010,08,13,02,29,13.50
2010,08,13,02,30,13.50
2010,08,13,02,31,13.50
2010,08,13,02,32,13.50
2010,08,13,02,33,13.40
2010,08,13,02,34,13.40
2010,08,13,02,35,13.40
2010,08,13,02,36,13.40
2010,08,13,02,37,13.40
2010,08,13,02,38,13.40
2010,08,13,02,39,13.40
2010,08,13,02,40,13.40
2010,08,13,02,41,13.40
2010,08,13,02,42,13.30
2010,08,13,02,43,13.30
2010,08,13,02,44,13.30
2010,08,13,02,45,13.30
2010,08,13,02,46,13.30
2010,08,13,02,47,13.30
2010,08,13,02,48,13.20
2010,08,13,02,49,13.20
2010,08,13,02,50,13.20
2010,08,13,02,51,13.20
2010,08,13,02,52,13.20
2010,08,13,02,53,13.20
2010,08,13,02,54,13.10
2010,08,13,02,55,13.10
2010,08,13,02,56,13.10
2010,08,13,02,57,13.10
2010,08,13,02,58,13.10
2010,08,13,02,59,13.10
2010,08,13,03,00,13.00
2010,08,13,03,01,13.00
2010,08,13,03,02,13.00
2010,08,13,03,03,13.00
2010,08,13,03,04,12.90
2010,08,13,03,05,12.90
2010,08,13,03,06,12.90
2010,08,13,03,07,12.90
2010,08,13,03,08,12.90
2010,08,13,03,09,12.90
2010,08,13,03,10,12.90
2010,08,13,03,11,12.90
2010,08,13,03,12,12.90
2010,08,13,03,13,12.90
2010,08,13,03,14,12.90
2010,08,13,03,15,12.90
2010,08,13,03,16,12.90
2010,08,13,03,17,12.90
2010,08,13,03,18,12.90
2010,08,13,03,19,12.80
2010,08,13,03,20,12.80
2010,08,13,03,21,12.80
2010,08,13,03,22,12.80
2010,08,13,03,23,12.80
2010,08,13,03,24,12.80
2010,08,13,03,25,12.80
2010,08,13,03,26,12.80
2010,08,13,03,27,12.80
2010,08,13,03,28,12.70
2010,08,13,03,29,12.70
2010,08,13,03,30,12.70
2010,08,13,03,31,12.70
2010,08,13,03,32,12.70
2010,08,13,03,33,12.70
2010,08,13,03,34,12.70
2010,08,13,03,35,12.70
2010,08,13,03,36,12.70
2010,08,13,03,37,12.60
2010,08,13,03,38,12.60
2010,08,13,03,39,12.60
2010,08,13,03,40,12.60
2010,08,13,03,41,12.60
2010,08,13,03,42,12.60
2010,08,13,03,43,12.60
2010,08,13,03,44,12.60
2010,08,13,03,45,12.60
2010,08,13,03,46,12.60
2010,08,13,03,47,12.60
2010,08,13,03,48,12.60
2010,08,13,03,49,12.60
2010,08,13,03,50,12.60
2010,08,13,03,51,12.60
2010,08,13,03,52,12.60
2010,08,13,03,53,12.60
2010,08,13,03,54,12.60
2010,08,13,03,55,12.60
2010,08,13,03,56,12.50
2010,08,13,03,57,12.50
2010,08,13,03,58,12.50
2010,08,13,03,59,12.50
2010,08,13,04,00,12.50
2010,08,13,04,01,12.60
2010,08,13,04,02,12.60
2010,08,13,04,03,12.60
2010,08,13,04,04,12.60
2010,08,13,04,05,12.60
2010,08,13,04,06,12.60
2010,08,13,04,07,12.60
2010,08,13,04,08,12.60
2010,08,13,04,09,12.60
2010,08,13,04,10,12.60
2010,08,13,04,11,12.60
2010,08,13,04,12,12.50
2010,08,13,04,13,12.50
2010,08,13,04,14,12.40
2010,08,13,04,15,12.40
2010,08,13,04,16,12.40
2010,08,13,04,17,12.30
2010,08,13,04,18,12.30
2010,08,13,04,19,12.30
2010,08,13,04,20,12.30
2010,08,13,04,21,12.30
2010,08,13,04,22,12.40
2010,08,13,04,23,12.30
2010,08,13,04,24,12.30
2010,08,13,04,25,12.30
2010,08,13,04,26,12.30
2010,08,13,04,27,12.30
2010,08,13,04,28,12.30
2010,08,13,04,29,12.30
2010,08,13,04,30,12.30
2010,08,13,04,31,12.30
2010,08,13,04,32,12.30
2010,08,13,04,33,12.30
2010,08,13,04,34,12.30
2010,08,13,04,35,12.30
2010,08,13,04,36,12.30
2010,08,13,04,37,12.30
2010,08,13,04,38,12.30
2010,08,13,04,39,12.30
2010,08,13,04,40,12.30
2010,08,13,04,41,12.30
2010,08,13,04,42,12.30
2010,08,13,04,43,12.30
2010,08,13,04,44,12.30
2010,08,13,04,45,12.30
2010,08,13,04,46,12.20
2010,08,13,04,47,12.20
2010,08,13,04,48,12.20
2010,08,13,04,49,12.20
2010,08,13,04,50,12.10
2010,08,13,04,51,12.10
2010,08,13,04,52,12.10
2010,08,13,04,53,12.10
2010,08,13,04,54,12.10
2010,08,13,04,55,12.10
2010,08,13,04,56,12.10
2010,08,13,04,57,12.10
2010,08,13,04,58,12.10
2010,08,13,04,59,12.10
2010,08,13,05,00,12.10
2010,08,13,05,01,12.10
2010,08,13,05,02,12.10
2010,08,13,05,03,12.10
2010,08,13,05,04,12.10
2010,08,13,05,05,12.10
2010,08,13,05,06,12.10
2010,08,13,05,07,12.10
2010,08,13,05,08,12.10
2010,08,13,05,09,12.10
2010,08,13,05,10,12.10
2010,08,13,05,11,12.10
2010,08,13,05,12,12.10
2010,08,13,05,13,12.20
2010,08,13,05,14,12.20
2010,08,13,05,15,12.20
2010,08,13,05,16,12.20
2010,08,13,05,17,12.20
2010,08,13,05,18,12.20
2010,08,13,05,19,12.20
2010,08,13,05,20,12.10
2010,08,13,05,21,12.10
2010,08,13,05,22,12.10
2010,08,13,05,23,12.00
2010,08,13,05,24,12.00
2010,08,13,05,25,12.00
2010,08,13,05,26,11.90
2010,08,13,05,27,11.90
2010,08,13,05,28,11.90
2010,08,13,05,29,11.90
2010,08,13,05,30,11.90
2010,08,13,05,31,11.90
2010,08,13,05,32,11.90
2010,08,13,05,33,11.90
2010,08,13,05,34,11.90
2010,08,13,05,35,11.90
2010,08,13,05,36,11.90
2010,08,13,05,37,12.00
2010,08,13,05,38,12.00
2010,08,13,05,39,12.00
2010,08,13,05,40,12.00
2010,08,13,05,41,12.00
2010,08,13,05,42,12.00
2010,08,13,05,43,12.10
2010,08,13,05,44,12.00
2010,08,13,05,45,12.10
2010,08,13,05,46,12.00
2010,08,13,05,47,12.00
2010,08,13,05,48,12.10
2010,08,13,05,49,12.10
2010,08,13,05,50,12.10
2010,08,13,05,51,12.10
2010,08,13,05,52,12.10
2010,08,13,05,53,12.10
2010,08,13,05,54,12.10
2010,08,13,05,55,12.10
2010,08,13,05,56,12.00
2010,08,13,05,57,12.00
2010,08,13,05,58,11.90
2010,08,13,05,59,11.90
2010,08,13,06,00,11.80
2010,08,13,06,01,11.80
2010,08,13,06,02,11.80
2010,08,13,06,03,11.70
2010,08,13,06,04,11.70
2010,08,13,06,05,11.70
2010,08,13,06,06,11.70
2010,08,13,06,07,11.70
2010,08,13,06,08,11.70
2010,08,13,06,09,11.70
2010,08,13,06,10,11.70
2010,08,13,06,11,11.70
2010,08,13,06,12,11.70
2010,08,13,06,13,11.70
2010,08,13,06,14,11.70
2010,08,13,06,15,11.80
2010,08,13,06,16,11.80
2010,08,13,06,17,11.80
2010,08,13,06,18,11.80
2010,08,13,06,19,11.80
2010,08,13,06,20,11.80
2010,08,13,06,21,11.80
2010,08,13,06,22,11.80
2010,08,13,06,23,11.80
2010,08,13,06,24,11.80
2010,08,13,06,25,11.80
2010,08,13,06,26,11.70
2010,08,13,06,27,11.70
2010,08,13,06,28,11.70
2010,08,13,06,29,11.80
2010,08,13,06,30,11.80
2010,08,13,06,31,11.80
2010,08,13,06,32,11.80
2010,08,13,06,33,11.80
2010,08,13,06,34,11.80
2010,08,13,06,35,11.80
2010,08,13,06,36,11.80
2010,08,13,06,37,11.80
2010,08,13,06,38,11.80
2010,08,13,06,39,11.80
2010,08,13,06,40,11.80
2010,08,13,06,41,11.80
2010,08,13,06,42,11.80
2010,08,13,06,43,11.80
2010,08,13,06,44,11.80
2010,08,13,06,45,11.80
2010,08,13,06,46,11.80
2010,08,13,06,47,11.80
2010,08,13,06,48,11.80
2010,08,13,06,49,11.80
2010,08,13,06,50,11.80
2010,08,13,06,51,11.90
2010,08,13,06,52,11.90
2010,08,13,06,53,12.00
2010,08,13,06,54,12.00
2010,08,13,06,55,12.10
2010,08,13,06,56,12.10
2010,08,13,06,57,12.20
2010,08,13,06,58,12.20
2010,08,13,06,59,12.20
2010,08,13,07,00,12.20
2010,08,13,07,01,12.20
2010,08,13,07,02,12.20
2010,08,13,07,03,12.30
2010,08,13,07,04,12.30
2010,08,13,07,05,12.30
2010,08,13,07,06,12.40
2010,08,13,07,07,12.50
2010,08,13,07,08,12.50
2010,08,13,07,09,12.60
2010,08,13,07,10,12.60
2010,08,13,07,11,12.60
2010,08,13,07,12,12.70
2010,08,13,07,13,12.70
2010,08,13,07,14,12.70
2010,08,13,07,15,12.80
2010,08,13,07,16,12.80
2010,08,13,07,17,12.80
2010,08,13,07,18,12.90
2010,08,13,07,19,12.90
2010,08,13,07,20,12.90
2010,08,13,07,21,13.00
2010,08,13,07,22,13.10
2010,08,13,07,23,13.10
2010,08,13,07,24,13.20
2010,08,13,07,25,13.30
2010,08,13,07,26,13.40
2010,08,13,07,27,13.40
2010,08,13,07,28,13.50
2010,08,13,07,29,13.50
2010,08,13,07,30,13.60
2010,08,13,07,31,13.60
2010,08,13,07,32,13.70
2010,08,13,07,33,13.70
2010,08,13,07,34,13.80
2010,08,13,07,35,13.80
2010,08,13,07,36,13.90
2010,08,13,07,37,14.00
2010,08,13,07,38,14.10
2010,08,13,07,39,14.20
2010,08,13,07,40,14.30
2010,08,13,07,41,14.40
2010,08,13,07,42,14.50
2010,08,13,07,43,14.60
2010,08,13,07,44,14.70
2010,08,13,07,45,14.80
2010,08,13,07,46,14.90
2010,08,13,07,47,15.00
2010,08,13,07,48,15.00
2010,08,13,07,49,15.10
2010,08,13,07,50,15.20
2010,08,13,07,51,15.20
2010,08,13,07,52,15.30
2010,08,13,07,53,15.40
2010,08,13,07,54,15.50
2010,08,13,07,55,15.60
2010,08,13,07,56,15.70
2010,08,13,07,57,15.70
2010,08,13,07,58,15.80
2010,08,13,07,59,15.90
2010,08,13,08,00,16.00
2010,08,13,08,01,16.10
2010,08,13,08,02,16.20
2010,08,13,08,03,16.20
2010,08,13,08,04,16.30
2010,08,13,08,05,16.40
2010,08,13,08,06,16.50
2010,08,13,08,07,16.60
2010,08,13,08,08,16.70
2010,08,13,08,09,16.80
2010,08,13,08,10,16.90
2010,08,13,08,11,17.00
2010,08,13,08,12,17.10
2010,08,13,08,13,17.20
2010,08,13,08,14,17.30
2010,08,13,08,15,17.40
2010,08,13,08,16,17.40
2010,08,13,08,17,17.50
2010,08,13,08,18,17.60
2010,08,13,08,19,17.70
2010,08,13,08,20,17.70
2010,08,13,08,21,17.80
2010,08,13,08,22,17.90
2010,08,13,08,23,18.00
2010,08,13,08,24,18.00
2010,08,13,08,25,18.10
2010,08,13,08,26,18.10
2010,08,13,08,27,18.20
2010,08,13,08,28,18.20
2010,08,13,08,29,18.20
2010,08,13,08,30,18.30
2010,08,13,08,31,18.30
2010,08,13,08,32,18.30
2010,08,13,08,33,18.30
2010,08,13,08,34,18.40
2010,08,13,08,35,18.40
2010,08,13,08,36,18.50
2010,08,13,08,37,18.50
2010,08,13,08,38,18.60
2010,08,13,08,39,18.60
2010,08,13,08,40,18.70
2010,08,13,08,41,18.70
2010,08,13,08,42,18.80
2010,08,13,08,43,18.90
2010,08,13,08,44,19.00
2010,08,13,08,45,19.20
2010,08,13,08,46,19.30
2010,08,13,08,47,19.40
2010,08,13,08,48,19.50
2010,08,13,08,49,19.70
2010,08,13,08,50,19.80
2010,08,13,08,51,19.90
2010,08,13,08,52,20.00
2010,08,13,08,53,20.10
2010,08,13,08,54,20.10
2010,08,13,08,55,20.20
2010,08,13,08,56,20.30
2010,08,13,08,57,20.30
2010,08,13,08,58,20.30
2010,08,13,08,59,20.30
2010,08,13,09,00,20.30
2010,08,13,09,01,20.30
2010,08,13,09,02,20.40
2010,08,13,09,03,20.40
2010,08,13,09,04,20.50
2010,08,13,09,05,20.50
2010,08,13,09,06,20.60
2010,08,13,09,07,20.60
2010,08,13,09,08,20.60
2010,08,13,09,09,20.60
2010,08,13,09,10,20.70
2010,08,13,09,11,20.70
2010,08,13,09,12,20.80
2010,08,13,09,13,20.80
2010,08,13,09,14,20.90
2010,08,13,09,15,20.90
2010,08,13,09,16,20.90
2010,08,13,09,17,21.00
2010,08,13,09,18,21.00
2010,08,13,09,19,21.00
2010,08,13,09,20,21.00
2010,08,13,09,21,21.00
2010,08,13,09,22,21.00
2010,08,13,09,23,21.00
2010,08,13,09,24,21.00
2010,08,13,09,25,21.10
2010,08,13,09,26,21.10
2010,08,13,09,27,21.10
2010,08,13,09,28,21.20
2010,08,13,09,29,21.20
2010,08,13,09,30,21.20
2010,08,13,09,31,21.30
2010,08,13,09,32,21.40
2010,08,13,09,33,21.40
2010,08,13,09,34,21.50
2010,08,13,09,35,21.50
2010,08,13,09,36,21.60
2010,08,13,09,37,21.60
2010,08,13,09,38,21.60
2010,08,13,09,39,21.60
2010,08,13,09,40,21.70
2010,08,13,09,41,21.70
2010,08,13,09,42,21.80
2010,08,13,09,43,21.80
2010,08,13,09,44,21.90
2010,08,13,09,45,21.90
2010,08,13,09,46,22.00
2010,08,13,09,47,22.10
2010,08,13,09,48,22.20
2010,08,13,09,49,22.30
2010,08,13,09,50,22.30
2010,08,13,09,51,22.30
2010,08,13,09,52,22.40
2010,08,13,09,53,22.50
2010,08,13,09,54,22.50
2010,08,13,09,55,22.60
2010,08,13,09,56,22.60
2010,08,13,09,57,22.70
2010,08,13,09,58,22.70
2010,08,13,09,59,22.70
2010,08,13,10,00,22.70
2010,08,13,10,01,22.70
2010,08,13,10,02,22.70
2010,08,13,10,03,22.60
2010,08,13,10,04,22.60
2010,08,13,10,05,22.60
2010,08,13,10,06,22.60
2010,08,13,10,07,22.50
2010,08,13,10,08,22.50
2010,08,13,10,09,22.50
2010,08,13,10,10,22.40
2010,08,13,10,11,22.30
2010,08,13,10,12,22.30
2010,08,13,10,13,22.20
2010,08,13,10,14,22.20
2010,08,13,10,15,22.10
2010,08,13,10,16,22.10
2010,08,13,10,17,22.00
2010,08,13,10,18,22.00
2010,08,13,10,19,21.90
2010,08,13,10,20,21.90
2010,08,13,10,21,21.90
2010,08,13,10,22,21.90
2010,08,13,10,23,21.80
2010,08,13,10,24,21.80
2010,08,13,10,25,21.80
2010,08,13,10,26,21.90
2010,08,13,10,27,22.00
2010,08,13,10,28,22.00
2010,08,13,10,29,22.10
2010,08,13,10,30,22.20
2010,08,13,10,31,22.30
2010,08,13,10,32,22.40
2010,08,13,10,33,22.50
2010,08,13,10,34,22.50
2010,08,13,10,35,22.60
2010,08,13,10,36,22.60
2010,08,13,10,37,22.70
2010,08,13,10,38,22.70
2010,08,13,10,39,22.80
2010,08,13,10,40,22.90
2010,08,13,10,41,22.90
2010,08,13,10,42,22.90
2010,08,13,10,43,22.90
2010,08,13,10,44,22.80
2010,08,13,10,45,22.80
2010,08,13,10,46,22.80
2010,08,13,10,47,22.80
2010,08,13,10,48,22.80
2010,08,13,10,49,22.80
2010,08,13,10,50,22.70
2010,08,13,10,51,22.80
2010,08,13,10,52,22.80
2010,08,13,10,53,22.80
2010,08,13,10,54,22.90
2010,08,13,10,55,22.90
2010,08,13,10,56,23.00
2010,08,13,10,57,23.10
2010,08,13,10,58,23.00
2010,08,13,10,59,23.00
2010,08,13,11,00,23.00
2010,08,13,11,01,23.00
2010,08,13,11,02,23.00
2010,08,13,11,03,23.10
2010,08,13,11,04,23.10
2010,08,13,11,05,23.10
2010,08,13,11,06,23.00
2010,08,13,11,07,23.00
2010,08,13,11,08,23.00
2010,08,13,11,09,23.00
2010,08,13,11,10,23.00
2010,08,13,11,11,22.90
2010,08,13,11,12,23.00
2010,08,13,11,13,23.10
2010,08,13,11,14,23.20
2010,08,13,11,15,23.20
2010,08,13,11,16,23.30
2010,08,13,11,17,23.30
2010,08,13,11,18,23.40
2010,08,13,11,19,23.50
2010,08,13,11,20,23.50
2010,08,13,11,21,23.50
2010,08,13,11,22,23.50
2010,08,13,11,23,23.60
2010,08,13,11,24,23.60
2010,08,13,11,25,23.60
2010,08,13,11,26,23.60
2010,08,13,11,27,23.70
2010,08,13,11,28,23.70
2010,08,13,11,29,23.70
2010,08,13,11,30,23.80
2010,08,13,11,31,23.90
2010,08,13,11,32,24.00
2010,08,13,11,33,24.00
2010,08,13,11,34,24.10
2010,08,13,11,35,24.10
2010,08,13,11,36,24.10
2010,08,13,11,37,24.00
2010,08,13,11,38,23.90
2010,08,13,11,39,23.90
2010,08,13,11,40,23.90
2010,08,13,11,41,23.90
2010,08,13,11,42,24.00
2010,08,13,11,43,24.10
2010,08,13,11,44,24.10
2010,08,13,11,45,24.20
2010,08,13,11,46,24.20
2010,08,13,11,47,24.20
2010,08,13,11,48,24.10
2010,08,13,11,49,24.00
2010,08,13,11,50,24.00
2010,08,13,11,51,23.90
2010,08,13,11,52,23.90
2010,08,13,11,53,23.80
2010,08,13,11,54,23.80
2010,08,13,11,55,23.80
2010,08,13,11,56,23.80
2010,08,13,11,57,23.90
2010,08,13,11,58,24.00
2010,08,13,11,59,24.10
2010,08,13,12,00,24.20
2010,08,13,12,01,24.40
2010,08,13,12,02,24.50
2010,08,13,12,03,24.60
2010,08,13,12,04,24.60
2010,08,13,12,05,24.60
2010,08,13,12,06,24.70
2010,08,13,12,07,24.70
2010,08,13,12,08,24.80
2010,08,13,12,09,24.80
2010,08,13,12,10,24.90
2010,08,13,12,11,25.00
2010,08,13,12,12,25.00
2010,08,13,12,13,25.10
2010,08,13,12,14,25.10
2010,08,13,12,15,25.20
2010,08,13,12,16,25.30
2010,08,13,12,17,25.20
2010,08,13,12,18,25.20
2010,08,13,12,19,25.20
2010,08,13,12,20,25.30
2010,08,13,12,21,25.30
2010,08,13,12,22,25.30
2010,08,13,12,23,25.40
2010,08,13,12,24,25.40
2010,08,13,12,25,25.30
2010,08,13,12,26,25.30
2010,08,13,12,27,25.20
2010,08,13,12,28,25.20
2010,08,13,12,29,25.20
2010,08,13,12,30,25.30
2010,08,13,12,31,25.30
2010,08,13,12,32,25.40
2010,08,13,12,33,25.50
2010,08,13,12,34,25.70
2010,08,13,12,35,25.90
2010,08,13,12,36,26.00
2010,08,13,12,37,26.10
2010,08,13,12,38,26.00
2010,08,13,12,39,25.90
2010,08,13,12,40,25.90
2010,08,13,12,41,25.80
2010,08,13,12,42,25.80
2010,08,13,12,43,25.80
2010,08,13,12,44,25.80
2010,08,13,12,45,25.80
2010,08,13,12,46,25.90
2010,08,13,12,47,25.90
2010,08,13,12,48,25.90
2010,08,13,12,49,25.90
2010,08,13,12,50,25.90
2010,08,13,12,51,25.90
2010,08,13,12,52,25.90
2010,08,13,12,53,26.00
2010,08,13,12,54,26.00
2010,08,13,12,55,26.10
2010,08,13,12,56,26.10
2010,08,13,12,57,26.10
2010,08,13,12,58,26.00
2010,08,13,12,59,26.00
2010,08,13,13,00,26.10
2010,08,13,13,01,26.10
2010,08,13,13,02,26.10
2010,08,13,13,03,26.20
2010,08,13,13,04,26.20
2010,08,13,13,05,26.20
2010,08,13,13,06,26.20
2010,08,13,13,07,26.10
2010,08,13,13,08,26.20
2010,08,13,13,09,26.20
2010,08,13,13,10,26.20
2010,08,13,13,11,26.20
2010,08,13,13,12,26.30
2010,08,13,13,13,26.30
2010,08,13,13,14,26.40
2010,08,13,13,15,26.40
2010,08,13,13,16,26.40
2010,08,13,13,17,26.40
2010,08,13,13,18,26.30
2010,08,13,13,19,26.40
2010,08,13,13,20,26.50
2010,08,13,13,21,26.60
2010,08,13,13,22,26.50
2010,08,13,13,23,26.50
2010,08,13,13,24,26.40
2010,08,13,13,25,26.50
2010,08,13,13,26,26.60
2010,08,13,13,27,26.60
2010,08,13,13,28,26.70
2010,08,13,13,29,26.60
2010,08,13,13,30,26.60
2010,08,13,13,31,26.60
2010,08,13,13,32,26.60
2010,08,13,13,33,26.60
2010,08,13,13,34,26.60
2010,08,13,13,35,26.60
2010,08,13,13,36,26.60
2010,08,13,13,37,26.60
2010,08,13,13,38,26.60
2010,08,13,13,39,26.60
2010,08,13,13,40,26.60
2010,08,13,13,41,26.70
2010,08,13,13,42,26.80
2010,08,13,13,43,26.80
2010,08,13,13,44,26.80
2010,08,13,13,45,26.70
2010,08,13,13,46,26.70
2010,08,13,13,47,26.70
2010,08,13,13,48,26.70
2010,08,13,13,49,26.80
2010,08,13,13,50,26.90
2010,08,13,13,51,26.90
2010,08,13,13,52,26.90
2010,08,13,13,53,26.90
2010,08,13,13,54,26.80
2010,08,13,13,55,26.80
2010,08,13,13,56,26.90
2010,08,13,13,57,26.90
2010,08,13,13,58,26.90
2010,08,13,13,59,26.90
2010,08,13,14,00,27.00
2010,08,13,14,01,27.10
2010,08,13,14,02,27.10
2010,08,13,14,03,27.20
2010,08,13,14,04,27.20
2010,08,13,14,05,27.20
2010,08,13,14,06,27.20
2010,08,13,14,07,27.30
2010,08,13,14,08,27.20
2010,08,13,14,09,27.20
2010,08,13,14,10,27.20
2010,08,13,14,11,27.20
2010,08,13,14,12,27.20
2010,08,13,14,13,27.30
2010,08,13,14,14,27.30
2010,08,13,14,15,27.40
2010,08,13,14,16,27.50
2010,08,13,14,17,27.60
2010,08,13,14,18,27.70
2010,08,13,14,19,27.70
2010,08,13,14,20,27.70
2010,08,13,14,21,27.70
2010,08,13,14,22,27.80
2010,08,13,14,23,28.00
2010,08,13,14,24,28.00
2010,08,13,14,25,28.00
2010,08,13,14,26,27.90
2010,08,13,14,27,27.90
2010,08,13,14,28,27.90
2010,08,13,14,29,27.90
2010,08,13,14,30,27.90
2010,08,13,14,31,27.90
2010,08,13,14,32,27.90
2010,08,13,14,33,27.90
2010,08,13,14,34,27.90
2010,08,13,14,35,27.90
2010,08,13,14,36,27.80
2010,08,13,14,37,27.80
2010,08,13,14,38,27.80
2010,08,13,14,39,27.80
2010,08,13,14,40,27.80
2010,08,13,14,41,27.80
2010,08,13,14,42,27.90
2010,08,13,14,43,27.90
2010,08,13,14,44,27.90
2010,08,13,14,45,27.90
2010,08,13,14,46,28.00
2010,08,13,14,47,28.10
2010,08,13,14,48,28.10
2010,08,13,14,49,28.20
2010,08,13,14,50,28.30
2010,08,13,14,51,28.30
2010,08,13,14,52,28.20
2010,08,13,14,53,28.20
2010,08,13,14,54,28.20
2010,08,13,14,55,28.30
2010,08,13,14,56,28.40
2010,08,13,14,57,28.50
2010,08,13,14,58,28.60
2010,08,13,14,59,28.60
2010,08,13,15,00,28.60
2010,08,13,15,01,28.50
2010,08,13,15,02,28.50
2010,08,13,15,03,28.60
2010,08,13,15,04,28.60
2010,08,13,15,05,28.60
2010,08,13,15,06,28.60
2010,08,13,15,07,28.70
2010,08,13,15,08,28.70
2010,08,13,15,09,28.70
2010,08,13,15,10,28.70
2010,08,13,15,11,28.70
2010,08,13,15,12,28.70
2010,08,13,15,13,28.80
2010,08,13,15,14,28.80
2010,08,13,15,15,28.80
2010,08,13,15,16,28.80
2010,08,13,15,17,28.80
2010,08,13,15,18,28.80
2010,08,13,15,19,28.90
2010,08,13,15,20,28.90
2010,08,13,15,21,29.00
2010,08,13,15,22,29.10
2010,08,13,15,23,29.20
2010,08,13,15,24,29.30
2010,08,13,15,25,29.30
2010,08,13,15,26,29.40
2010,08,13,15,27,29.40
2010,08,13,15,28,29.30
2010,08,13,15,29,29.30
2010,08,13,15,30,29.30
2010,08,13,15,31,29.30
2010,08,13,15,32,29.30
2010,08,13,15,33,29.40
2010,08,13,15,34,29.50
2010,08,13,15,35,29.60
2010,08,13,15,36,29.60
2010,08,13,15,37,29.70
2010,08,13,15,38,29.70
2010,08,13,15,39,29.80
2010,08,13,15,40,29.60
2010,08,13,15,41,29.40
2010,08,13,15,42,28.90
2010,08,13,15,43,28.50
2010,08,13,15,44,28.20
2010,08,13,15,45,28.00
2010,08,13,15,46,27.80
2010,08,13,15,47,27.70
2010,08,13,15,48,27.50
2010,08,13,15,49,27.40
2010,08,13,15,50,27.40
2010,08,13,15,51,27.40
2010,08,13,15,52,27.40
2010,08,13,15,53,27.40
2010,08,13,15,54,27.50
2010,08,13,15,55,27.50
2010,08,13,15,56,27.50
2010,08,13,15,57,27.60
2010,08,13,15,58,27.60
2010,08,13,15,59,27.70
2010,08,13,16,00,27.70
2010,08,13,16,01,27.80
2010,08,13,16,02,27.80
2010,08,13,16,03,27.80
2010,08,13,16,04,27.80
2010,08,13,16,05,27.80
2010,08,13,16,06,27.80
2010,08,13,16,07,27.80
2010,08,13,16,08,27.80
2010,08,13,16,09,27.80
2010,08,13,16,10,27.90
2010,08,13,16,11,27.90
2010,08,13,16,12,28.00
2010,08,13,16,13,28.00
2010,08,13,16,14,28.00
2010,08,13,16,15,28.10
2010,08,13,16,16,28.10
2010,08,13,16,17,28.10
2010,08,13,16,18,28.20
2010,08,13,16,19,28.20
2010,08,13,16,20,28.20
2010,08,13,16,21,28.30
2010,08,13,16,22,28.30
2010,08,13,16,23,28.40
2010,08,13,16,24,28.40
2010,08,13,16,25,28.50
2010,08,13,16,26,28.50
2010,08,13,16,27,28.60
2010,08,13,16,28,28.50
2010,08,13,16,29,28.40
2010,08,13,16,30,28.20
2010,08,13,16,31,28.00
2010,08,13,16,32,27.80
2010,08,13,16,33,27.60
2010,08,13,16,34,27.50
2010,08,13,16,35,27.40
2010,08,13,16,36,27.30
2010,08,13,16,37,27.20
2010,08,13,16,38,27.10
2010,08,13,16,39,27.10
2010,08,13,16,40,27.10
2010,08,13,16,41,27.10
2010,08,13,16,42,27.10
2010,08,13,16,43,27.00
2010,08,13,16,44,27.00
2010,08,13,16,45,26.90
2010,08,13,16,46,26.90
2010,08,13,16,47,26.90
2010,08,13,16,48,26.90
2010,08,13,16,49,27.00
2010,08,13,16,50,27.00
2010,08,13,16,51,27.00
2010,08,13,16,52,27.00
2010,08,13,16,53,27.00
2010,08,13,16,54,27.00
2010,08,13,16,55,27.00
2010,08,13,16,56,27.10
2010,08,13,16,57,27.10
2010,08,13,16,58,27.10
2010,08,13,16,59,27.10
2010,08,13,17,00,27.20
2010,08,13,17,01,27.20
2010,08,13,17,02,27.20
2010,08,13,17,03,27.20
2010,08,13,17,04,27.30
2010,08,13,17,05,27.30
2010,08,13,17,06,27.40
2010,08,13,17,07,27.50
2010,08,13,17,08,27.50
2010,08,13,17,09,27.60
2010,08,13,17,10,27.60
2010,08,13,17,11,27.60
2010,08,13,17,12,27.70
2010,08,13,17,13,27.80
2010,08,13,17,14,27.80
2010,08,13,17,15,27.90
2010,08,13,17,16,27.90
2010,08,13,17,17,27.90
2010,08,13,17,18,28.00
2010,08,13,17,19,28.00